Time,TemperatureF,DewpointF,PressureIn,WindDirection,WindDirectionDegrees,WindSpeedMPH,WindSpeedGustMPH,Humidity,HourlyPrecipIn,Conditions,Clouds,dailyrainin,SoftwareType,DateUTC
2013-06-15 00:02:00,57.4,56.8,29.91,NNW,337,0.0,-999.0,98,-99.99,,,0.00,Acu-Link.com,2013-06-15 04:02:00,
2013-06-15 00:17:00,57.0,56.4,29.92,NNW,337,0.0,-999.0,98,-99.99,,,0.00,Acu-Link.com,2013-06-15 04:17:00,
2013-06-15 00:32:00,56.8,56.2,29.92,NNW,337,0.0,-999.0,98,-99.99,,,0.00,Acu-Link.com,2013-06-15 04:32:00,
2013-06-15 00:48:00,56.3,55.7,29.92,North,0,0.0,-999.0,98,-99.99,,,0.00,Acu-Link.com,2013-06-15 04:48:00,
2013-06-15 01:03:00,56.1,55.5,29.92,NNW,337,0.0,-999.0,98,-99.99,,,0.00,Acu-Link.com,2013-06-15 05:03:00,
2013-06-15 01:18:00,55.6,55.0,29.92,NNW,337,0.0,-999.0,98,-99.99,,,0.00,Acu-Link.com,2013-06-15 05:18:00,
2013-06-15 01:34:00,55.6,55.0,29.92,NNW,337,0.0,-999.0,98,-99.99,,,0.00,Acu-Link.com,2013-06-15 05:34:00,
2013-06-15 01:49:00,55.0,54.4,29.92,NNW,337,0.0,-999.0,98,-99.99,,,0.00,Acu-Link.com,2013-06-15 05:49:00,
2013-06-15 02:04:00,54.7,54.1,29.92,NNW,337,0.0,-999.0,98,-99.99,,,0.00,Acu-Link.com,2013-06-15 06:04:00,
2013-06-15 02:20:00,54.3,53.7,29.92,NNW,337,0.0,-999.0,98,-99.99,,,0.00,Acu-Link.com,2013-06-15 06:20:00,
2013-06-15 02:35:00,53.8,53.2,29.92,NNW,337,0.0,-999.0,98,-99.99,,,0.00,Acu-Link.com,2013-06-15 06:35:00,
2013-06-15 02:50:00,53.6,53.0,29.91,NNW,337,0.0,-999.0,98,-99.99,,,0.00,Acu-Link.com,2013-06-15 06:50:00,
2013-06-15 03:06:00,53.1,52.5,29.91,NNW,337,0.0,-999.0,98,-99.99,,,0.00,Acu-Link.com,2013-06-15 07:06:00,
2013-06-15 03:21:00,53.2,52.6,29.91,NNW,337,0.0,-999.0,98,-99.99,,,0.00,Acu-Link.com,2013-06-15 07:21:00,
2013-06-15 03:36:00,53.6,53.0,29.92,NNW,337,0.0,-999.0,98,-99.99,,,0.00,Acu-Link.com,2013-06-15 07:36:00,
2013-06-15 03:51:00,53.1,52.5,29.91,NNW,337,0.0,-999.0,98,-99.99,,,0.00,Acu-Link.com,2013-06-15 07:51:00,
2013-06-15 04:07:00,52.7,52.2,29.91,NNW,337,0.0,-999.0,98,-99.99,,,0.00,Acu-Link.com,2013-06-15 08:07:00,
2013-06-15 04:22:00,52.5,52.0,29.91,NNW,337,0.0,-999.0,98,-99.99,,,0.00,Acu-Link.com,2013-06-15 08:22:00,
2013-06-15 04:38:00,52.0,51.5,29.91,NNW,337,0.0,-999.0,98,-99.99,,,0.00,Acu-Link.com,2013-06-15 08:38:00,
2013-06-15 04:53:00,51.6,51.1,29.91,ENE,67,0.0,-999.0,98,-99.99,,,0.00,Acu-Link.com,2013-06-15 08:53:00,
2013-06-15 05:08:00,51.4,50.9,29.93,WNW,292,0.0,-999.0,98,-99.99,,,0.00,Acu-Link.com,2013-06-15 09:08:00,
2013-06-15 05:23:00,50.9,50.4,29.93,WNW,292,0.0,-999.0,98,-99.99,,,0.00,Acu-Link.com,2013-06-15 09:23:00,
2013-06-15 05:38:00,50.9,50.4,29.95,WNW,292,0.0,-999.0,98,-99.99,,,0.00,Acu-Link.com,2013-06-15 09:38:00,
2013-06-15 05:54:00,50.9,50.4,29.96,WNW,292,0.0,-999.0,98,-99.99,,,0.00,Acu-Link.com,2013-06-15 09:54:00,
2013-06-15 06:09:00,50.9,50.4,29.96,WNW,292,0.0,-999.0,98,-99.99,,,0.00,Acu-Link.com,2013-06-15 10:09:00,
2013-06-15 06:24:00,51.3,50.8,29.97,WNW,292,0.0,-999.0,98,-99.99,,,0.00,Acu-Link.com,2013-06-15 10:24:00,
2013-06-15 06:40:00,51.6,51.1,29.96,WNW,292,0.0,-999.0,98,-99.99,,,0.00,Acu-Link.com,2013-06-15 10:40:00,
2013-06-15 06:55:00,52.7,52.2,29.96,WNW,292,0.0,-999.0,98,-99.99,,,0.00,Acu-Link.com,2013-06-15 10:55:00,
2013-06-15 07:10:00,54.0,53.4,29.96,NNW,337,0.0,-999.0,98,-99.99,,,0.00,Acu-Link.com,2013-06-15 11:10:00,
2013-06-15 07:25:00,55.0,54.4,29.97,NNW,337,0.0,-999.0,98,-99.99,,,0.00,Acu-Link.com,2013-06-15 11:25:00,
2013-06-15 07:41:00,55.4,54.0,29.97,SE,135,0.0,-999.0,95,-99.99,,,0.00,Acu-Link.com,2013-06-15 11:41:00,
2013-06-15 07:56:00,55.9,55.3,29.97,ESE,112,0.0,-999.0,98,-99.99,,,0.00,Acu-Link.com,2013-06-15 11:56:00,
2013-06-15 08:11:00,57.0,56.4,29.98,South,180,0.0,-999.0,98,-99.99,,,0.00,Acu-Link.com,2013-06-15 12:11:00,
2013-06-15 08:26:00,58.1,57.5,29.98,West,270,0.0,-999.0,98,-99.99,,,0.00,Acu-Link.com,2013-06-15 12:26:00,
2013-06-15 08:42:00,60.3,58.0,29.97,North,0,1.7,-999.0,92,-99.99,,,0.00,Acu-Link.com,2013-06-15 12:42:00,
2013-06-15 08:57:00,64.0,56.6,29.97,SW,225,0.0,-999.0,77,-99.99,,,0.00,Acu-Link.com,2013-06-15 12:57:00,
2013-06-15 09:12:00,65.8,56.9,29.97,South,180,1.7,-999.0,73,-99.99,,,0.00,Acu-Link.com,2013-06-15 13:12:00,
2013-06-15 09:28:00,68.4,57.0,29.98,WSW,247,0.0,-999.0,67,-99.99,,,0.00,Acu-Link.com,2013-06-15 13:28:00,
2013-06-15 09:43:00,66.4,54.7,29.99,SSW,202,1.7,-999.0,66,-99.99,,,0.00,Acu-Link.com,2013-06-15 13:43:00,
2013-06-15 09:58:00,68.4,56.6,29.99,ESE,112,0.0,-999.0,66,-99.99,,,0.00,Acu-Link.com,2013-06-15 13:58:00,
2013-06-15 10:13:00,68.5,55.4,29.98,SW,225,1.7,-999.0,63,-99.99,,,0.00,Acu-Link.com,2013-06-15 14:13:00,
2013-06-15 10:29:00,69.8,56.2,29.97,SSW,202,0.0,-999.0,62,-99.99,,,0.00,Acu-Link.com,2013-06-15 14:29:00,
2013-06-15 10:44:00,70.5,56.8,29.98,South,180,2.2,-999.0,62,-99.99,,,0.00,Acu-Link.com,2013-06-15 14:44:00,
2013-06-15 10:59:00,71.1,56.0,29.98,SW,225,2.7,-999.0,59,-99.99,,,0.00,Acu-Link.com,2013-06-15 14:59:00,
2013-06-15 11:15:00,71.8,55.7,29.97,West,270,2.2,-999.0,57,-99.99,,,0.00,Acu-Link.com,2013-06-15 15:15:00,
2013-06-15 11:30:00,72.5,56.4,29.97,West,270,2.2,-999.0,57,-99.99,,,0.00,Acu-Link.com,2013-06-15 15:30:00,
2013-06-15 11:45:00,72.5,57.8,29.98,North,0,3.7,-999.0,60,-99.99,,,0.00,Acu-Link.com,2013-06-15 15:45:00,
2013-06-15 12:00:00,73.6,62.0,29.96,West,270,2.7,-999.0,67,-99.99,,,0.00,Acu-Link.com,2013-06-15 16:00:00,
2013-06-15 12:16:00,70.2,59.1,29.95,South,180,2.2,-999.0,68,-99.99,,,0.00,Acu-Link.com,2013-06-15 16:16:00,
2013-06-15 12:31:00,71.4,60.3,29.94,ESE,112,2.2,-999.0,68,-99.99,,,0.00,Acu-Link.com,2013-06-15 16:31:00,
2013-06-15 12:46:00,72.3,58.1,29.94,SSW,202,0.0,-999.0,61,-99.99,,,0.00,Acu-Link.com,2013-06-15 16:46:00,
2013-06-15 13:01:00,72.7,58.0,29.94,SSW,202,0.0,-999.0,60,-99.99,,,0.00,Acu-Link.com,2013-06-15 17:01:00,
2013-06-15 13:17:00,71.4,59.0,29.94,East,90,2.7,-999.0,65,-99.99,,,0.00,Acu-Link.com,2013-06-15 17:17:00,
2013-06-15 13:32:00,71.6,60.5,29.94,West,270,2.2,-999.0,68,-99.99,,,0.00,Acu-Link.com,2013-06-15 17:32:00,
2013-06-15 13:47:00,72.1,59.2,29.93,SW,225,2.2,-999.0,64,-99.99,,,0.00,Acu-Link.com,2013-06-15 17:47:00,
2013-06-15 14:02:00,73.6,60.7,29.92,WSW,247,2.7,-999.0,64,-99.99,,,0.00,Acu-Link.com,2013-06-15 18:02:00,
2013-06-15 14:17:00,72.7,61.9,29.93,SE,135,2.7,-999.0,69,-99.99,,,0.00,Acu-Link.com,2013-06-15 18:17:00,
2013-06-15 14:33:00,73.2,60.3,29.92,East,90,2.7,-999.0,64,-99.99,,,0.00,Acu-Link.com,2013-06-15 18:33:00,
2013-06-15 14:48:00,71.8,58.5,29.91,SSE,157,2.7,-999.0,63,-99.99,,,0.00,Acu-Link.com,2013-06-15 18:48:00,
2013-06-15 15:03:00,72.0,58.7,29.91,West,270,2.2,-999.0,63,-99.99,,,0.00,Acu-Link.com,2013-06-15 19:03:00,
2013-06-15 15:18:00,71.6,57.0,29.91,ENE,67,3.2,-999.0,60,-99.99,,,0.00,Acu-Link.com,2013-06-15 19:18:00,
2013-06-15 15:33:00,72.0,56.9,29.92,SSE,157,2.2,-999.0,59,-99.99,,,0.00,Acu-Link.com,2013-06-15 19:33:00,
2013-06-15 15:49:00,71.8,57.2,29.90,West,270,1.1,-999.0,60,-99.99,,,0.00,Acu-Link.com,2013-06-15 19:49:00,
2013-06-15 16:04:00,71.4,56.3,29.90,SW,225,1.7,-999.0,59,-99.99,,,0.00,Acu-Link.com,2013-06-15 20:04:00,
2013-06-15 16:19:00,70.9,58.1,29.90,ESE,112,3.7,-999.0,64,-99.99,,,0.00,Acu-Link.com,2013-06-15 20:19:00,
2013-06-15 16:34:00,71.6,58.8,29.89,SSW,202,1.7,-999.0,64,-99.99,,,0.00,Acu-Link.com,2013-06-15 20:34:00,
2013-06-15 16:49:00,73.0,59.2,29.90,West,270,1.7,-999.0,62,-99.99,,,0.00,Acu-Link.com,2013-06-15 20:49:00,
2013-06-15 17:04:00,71.2,57.5,29.89,West,270,2.2,-999.0,62,-99.99,,,0.00,Acu-Link.com,2013-06-15 21:04:00,
2013-06-15 17:20:00,71.1,57.0,29.89,WSW,247,2.7,-999.0,61,-99.99,,,0.00,Acu-Link.com,2013-06-15 21:20:00,
2013-06-15 17:35:00,70.9,56.3,29.88,West,270,2.2,-999.0,60,-99.99,,,0.00,Acu-Link.com,2013-06-15 21:35:00,
2013-06-15 17:50:00,70.9,54.9,29.88,SW,225,2.2,-999.0,57,-99.99,,,0.00,Acu-Link.com,2013-06-15 21:50:00,
2013-06-15 18:05:00,71.2,55.7,29.88,SSW,202,1.7,-999.0,58,-99.99,,,0.00,Acu-Link.com,2013-06-15 22:05:00,
2013-06-15 18:21:00,71.6,55.5,29.88,SSW,202,1.1,-999.0,57,-99.99,,,0.02,Acu-Link.com,2013-06-15 22:21:00,
2013-06-15 18:36:00,71.4,55.4,29.88,SW,225,2.7,-999.0,57,-99.99,,,0.02,Acu-Link.com,2013-06-15 22:36:00,
2013-06-15 18:51:00,70.5,57.7,29.87,South,180,0.0,-999.0,64,-99.99,,,0.02,Acu-Link.com,2013-06-15 22:51:00,
2013-06-15 19:07:00,69.3,57.4,29.87,SW,225,1.1,-999.0,66,-99.99,,,0.02,Acu-Link.com,2013-06-15 23:07:00,
2013-06-15 19:22:00,68.5,56.7,29.88,SW,225,2.2,-999.0,66,-99.99,,,0.02,Acu-Link.com,2013-06-15 23:22:00,
2013-06-15 19:37:00,68.4,57.8,29.88,SSW,202,2.2,-999.0,69,-99.99,,,0.02,Acu-Link.com,2013-06-15 23:37:00,
2013-06-15 19:52:00,67.8,58.0,29.88,SW,225,0.0,-999.0,71,-99.99,,,0.02,Acu-Link.com,2013-06-15 23:52:00,
2013-06-15 20:07:00,67.1,58.5,29.87,South,180,1.7,-999.0,74,-99.99,,,0.02,Acu-Link.com,2013-06-16 00:07:00,
2013-06-15 20:23:00,66.4,58.6,29.87,SSW,202,1.7,-999.0,76,-99.99,,,0.02,Acu-Link.com,2013-06-16 00:23:00,
2013-06-15 20:38:00,65.8,58.7,29.88,South,180,0.0,-999.0,78,-99.99,,,0.02,Acu-Link.com,2013-06-16 00:38:00,
2013-06-15 20:53:00,64.9,58.2,29.87,SSE,157,2.2,-999.0,79,-99.99,,,0.02,Acu-Link.com,2013-06-16 00:53:00,
2013-06-15 21:09:00,64.2,58.2,29.87,ENE,67,0.0,-999.0,81,-99.99,,,0.02,Acu-Link.com,2013-06-16 01:09:00,
2013-06-15 21:24:00,63.9,58.6,29.87,South,180,0.0,-999.0,83,-99.99,,,0.02,Acu-Link.com,2013-06-16 01:24:00,
2013-06-15 21:39:00,63.7,58.8,29.86,ESE,112,0.0,-999.0,84,-99.99,,,0.02,Acu-Link.com,2013-06-16 01:39:00,
2013-06-15 21:54:00,64.0,59.4,29.87,ESE,112,0.0,-999.0,85,-99.99,,,0.02,Acu-Link.com,2013-06-16 01:54:00,
2013-06-15 22:10:00,64.4,59.5,29.85,East,90,1.1,-999.0,84,-99.99,,,0.02,Acu-Link.com,2013-06-16 02:10:00,
2013-06-15 22:25:00,64.2,59.9,29.85,SSE,157,0.0,-999.0,86,-99.99,,,0.02,Acu-Link.com,2013-06-16 02:25:00,
2013-06-15 22:40:00,63.7,59.8,29.86,SSW,202,0.0,-999.0,87,-99.99,,,0.02,Acu-Link.com,2013-06-16 02:40:00,
2013-06-15 22:55:00,63.3,59.7,29.85,SSW,202,0.0,-999.0,88,-99.99,,,0.02,Acu-Link.com,2013-06-16 02:55:00,
2013-06-15 23:11:00,63.0,59.4,29.85,SE,135,0.0,-999.0,88,-99.99,,,0.02,Acu-Link.com,2013-06-16 03:11:00,
2013-06-15 23:26:00,62.6,59.3,29.85,South,180,0.0,-999.0,89,-99.99,,,0.02,Acu-Link.com,2013-06-16 03:26:00,
2013-06-15 23:41:00,62.4,59.4,29.85,South,180,0.0,-999.0,90,-99.99,,,0.02,Acu-Link.com,2013-06-16 03:41:00,
2013-06-15 23:57:00,62.2,59.2,29.84,SSW,202,0.0,-999.0,90,-99.99,,,0.02,Acu-Link.com,2013-06-16 03:57:00,